Location: Newark
(25.1987°N, 100.3705°W)
Time: 12:40:32
(UTC+00:00)

ISS - Pass Details

Date: 10 April 2020
Orbit: 417 x 419 km, 51.6° (Epoch: 03 June)

Event Time Altitude Azimuth Distance (km) Brightness Sun altitude
Rises 01:14:42 0° 326° (NW) 2,356 0.8 -3.7°
Reaches altitude 10° 01:16:52 10° 333° (NNW) 1,490 -0.4 -4.2°
Maximum altitude 01:20:05 44° 47° (NE) 588 -3.3 -4.9°
Drops below altitude 10° 01:23:16 10° 120° (ESE) 1,483 -1.6 -5.6°
Enters shadow 01:24:09 - 124° (SE) 1,830 -1.1 -5.8°
